Minden, LA

12:16 PM CDT on June 28, 2017 (GMT -0500)
Minden

Weather History for KMNE - September, 2012

Change the Weather History Date:

Saturday, September 29, 2012

  Actual Average (KBAD) Record (KBAD)
Temperature  
Mean Temperature 70 °F -  
Max Temperature 75 °F 79 °F 97 °F (2011)
Min Temperature 66 °F 58 °F 48 °F (1996)
Cooling Degree Days 6    
Growing Degree Days 20 (Base 50)    
Moisture  
Dew Point 67 °F    
Average Humidity 84    
Maximum Humidity 91    
Minimum Humidity 77    
Precipitation  
Precipitation 0.34 in - - ()
Sea Level Pressure  
Sea Level Pressure 29.94 in    
Wind  
Wind Speed 3 mph ()    
Max Wind Speed 12 mph    
Max Gust Speed 20 mph    
Visibility 9.4 miles    
Events Rain    
Averages and records for this station are not official NWS values.
T = Trace of Precipitation, MM = Missing Value Source: Averaged Metar Reports

Daily Weather History Graph

Daily Weather History Graph

Search for Another Location

Airport or City:

Trip Planner

Search our weather history database for the weather conditions in past years. The results will help you decide how hot, cold, wet, or windy it might be!

Date:

Astronomy

Sep. 29, 2012 Rise Set
Actual Time 7:06 AM CDT 6:59 PM CDT
Civil Twilight 6:41 AM CDT 7:24 PM CDT
Nautical Twilight 6:13 AM CDT 7:52 PM CDT
Astronomical Twilight 5:44 AM CDT 8:21 PM CDT
Moon 6:35 PM CDT (9/29) 6:36 AM CDT (9/29)
Length of Visible Light 12h 42m
Length of Day
11h 53m
Full, 100% of the Moon is Illuminated
Sep 29
Full
Sep 29
Full
Oct 8
Last Quarter
Oct 15
New
Oct 21
First Quarter

Hourly Weather History & Observations

Time (CDT) Temp. Dew Point Humidity Pressure Visibility Wind Dir Wind Speed Gust Speed Precip Events Conditions
12:15 AM 74.7 °F 67.1 °F 77% 30.01 in 10.0 mi SE 4.6 mph - N/A   Mostly Cloudy
12:35 AM 74.3 °F 67.1 °F 78% 30.00 in 10.0 mi East 3.5 mph - N/A   Overcast
12:55 AM 73.8 °F 66.7 °F 79% 29.99 in 10.0 mi Calm Calm - N/A   Scattered Clouds
1:15 AM 73.6 °F 66.6 °F 79% 29.99 in 10.0 mi Calm Calm - N/A   Clear
1:35 AM 73.4 °F 66.2 °F 78% 29.99 in 10.0 mi East 3.5 mph - N/A   Clear
1:55 AM 73.4 °F 66.9 °F 80% 29.99 in 10.0 mi East 3.5 mph - N/A   Clear
2:15 AM 73.2 °F 66.9 °F 81% 29.99 in 10.0 mi Calm Calm - N/A   Clear
2:35 AM 72.9 °F 67.1 °F 82% 29.99 in 10.0 mi Calm Calm - N/A   Clear
2:55 AM 72.5 °F 67.1 °F 83% 29.98 in 10.0 mi Calm Calm - N/A   Clear
3:15 AM 72.5 °F 67.3 °F 84% 29.97 in 10.0 mi Calm Calm - N/A   Clear
3:35 AM 72.5 °F 67.5 °F 84% 29.97 in 10.0 mi Calm Calm - N/A   Clear
3:55 AM 72.5 °F 67.8 °F 85% 29.96 in 10.0 mi Calm Calm - N/A   Clear
4:15 AM 72.5 °F 68.0 °F 86% 29.96 in 10.0 mi Calm Calm - N/A   Clear
4:35 AM 72.1 °F 68.0 °F 87% 29.96 in 10.0 mi Calm Calm - N/A   Clear
4:55 AM 72.1 °F 68.0 °F 87% 29.96 in 10.0 mi Calm Calm - N/A   Clear
5:15 AM 71.6 °F 67.6 °F 87% 29.96 in 10.0 mi Calm Calm - N/A   Scattered Clouds
5:35 AM 72.1 °F 68.0 °F 87% 29.96 in 10.0 mi Calm Calm - N/A   Scattered Clouds
5:55 AM 72.1 °F 67.5 °F 85% 29.97 in 10.0 mi East 4.6 mph - N/A   Clear
6:15 AM 72.1 °F 67.6 °F 86% 29.97 in 10.0 mi East 3.5 mph - N/A   Clear
6:35 AM 72.0 °F 67.5 °F 86% 29.97 in 10.0 mi East 3.5 mph - N/A   Clear
6:55 AM 72.0 °F 67.5 °F 86% 29.97 in 10.0 mi East 3.5 mph - N/A   Scattered Clouds
7:15 AM 72.0 °F 67.3 °F 85% 29.96 in 10.0 mi ENE 3.5 mph - N/A   Scattered Clouds
7:35 AM 72.5 °F 67.3 °F 84% 29.96 in 10.0 mi Calm Calm - N/A   Scattered Clouds
7:55 AM 72.7 °F 67.3 °F 83% 29.97 in 10.0 mi NE 3.5 mph - N/A   Clear
8:15 AM 73.2 °F 67.5 °F 82% 29.97 in 10.0 mi Calm Calm - N/A   Scattered Clouds
8:35 AM 73.4 °F 67.6 °F 82% 29.98 in 10.0 mi East 3.5 mph - N/A   Scattered Clouds
8:55 AM 73.4 °F 67.5 °F 82% 29.98 in 10.0 mi East 4.6 mph - N/A   Clear
9:15 AM 73.9 °F 67.5 °F 80% 29.98 in 10.0 mi East 3.5 mph - N/A   Scattered Clouds
9:35 AM 73.9 °F 67.5 °F 80% 29.98 in 10.0 mi ENE 6.9 mph - N/A   Mostly Cloudy
9:55 AM 73.9 °F 67.6 °F 81% 29.98 in 10.0 mi East 5.8 mph - N/A   Scattered Clouds
10:15 AM 74.3 °F 68.0 °F 81% 29.99 in 10.0 mi Calm Calm - N/A   Mostly Cloudy
10:35 AM 74.7 °F 68.4 °F 81% 29.99 in 10.0 mi Calm Calm - N/A Rain Light Rain
10:55 AM 74.8 °F 68.5 °F 81% 29.99 in 10.0 mi Calm Calm - N/A   Overcast
11:15 AM 75.4 °F 68.7 °F 80% 29.99 in 10.0 mi East 5.8 mph - N/A   Overcast
11:35 AM 75.2 °F 68.7 °F 80% 29.98 in 10.0 mi East 4.6 mph - N/A Rain Light Rain
11:55 AM 75.0 °F 68.9 °F 81% 29.97 in 10.0 mi NE 4.6 mph - N/A   Overcast
12:15 PM 75.7 °F 69.3 °F 80% 29.96 in 10.0 mi NNE 5.8 mph - N/A   Light Drizzle
12:35 PM 75.6 °F 69.3 °F 81% 29.96 in 10.0 mi NNE 3.5 mph - N/A Rain Light Rain
12:55 PM 75.2 °F 69.3 °F 82% 29.95 in 10.0 mi NNE 3.5 mph - N/A Rain Light Rain
1:15 PM 74.7 °F 69.3 °F 83% 29.94 in 10.0 mi Calm Calm - N/A   Light Drizzle
1:35 PM 74.8 °F 69.3 °F 83% 29.93 in 7.0 mi NE 3.5 mph - N/A Rain Light Rain
1:55 PM 75.6 °F 69.8 °F 82% 29.92 in 7.0 mi NE 6.9 mph - N/A   Light Drizzle
2:15 PM 75.4 °F 69.3 °F 81% 29.91 in 10.0 mi ENE 4.6 mph - N/A   Overcast
2:35 PM 75.7 °F 68.9 °F 79% 29.91 in 10.0 mi ENE 8.1 mph - N/A   Overcast
2:55 PM 75.7 °F 69.1 °F 80% 29.90 in 10.0 mi ENE 5.8 mph - N/A   Overcast
3:15 PM 75.6 °F 68.9 °F 80% 29.89 in 10.0 mi NE 4.6 mph - N/A Rain Light Rain
3:35 PM 74.7 °F 68.7 °F 82% 29.89 in 10.0 mi NE 4.6 mph - N/A   Light Drizzle
3:55 PM 74.7 °F 68.5 °F 81% 29.88 in 10.0 mi NE 5.8 mph - N/A   Light Drizzle
4:15 PM 75.0 °F 68.0 °F 79% 29.88 in 10.0 mi NNE 9.2 mph - N/A Rain Light Rain
4:35 PM 74.3 °F 66.7 °F 77% 29.88 in 10.0 mi ENE 4.6 mph - N/A   Mostly Cloudy
4:55 PM 72.7 °F 66.2 °F 80% 29.88 in 10.0 mi ENE 6.9 mph - N/A Rain Light Rain
5:15 PM 71.1 °F 65.8 °F 84% 29.88 in 7.0 mi ENE 8.1 mph - 0.02 in Rain Rain
5:35 PM 70.2 °F 65.7 °F 86% 29.88 in 7.0 mi ENE 4.6 mph - 0.05 in Rain Light Rain
5:55 PM 69.8 °F 65.5 °F 86% 29.89 in 7.0 mi East 5.8 mph - 0.07 in Rain Rain
6:15 PM 69.3 °F 65.5 °F 88% 29.89 in 10.0 mi East 6.9 mph - 0.01 in Rain Light Rain
6:35 PM 68.9 °F 65.3 °F 88% 29.89 in 7.0 mi East 6.9 mph - 0.03 in Rain Rain
6:55 PM 67.6 °F 63.3 °F 86% 29.89 in 5.0 mi East 8.1 mph 19.6 mph 0.08 in Rain Rain
7:15 PM 67.1 °F 62.8 °F 86% 29.89 in 10.0 mi ENE 5.8 mph - 0.01 in Rain Light Rain
7:35 PM 66.7 °F 62.8 °F 87% 29.88 in 10.0 mi ENE 4.6 mph - 0.03 in Rain Light Rain
7:55 PM 66.7 °F 63.0 °F 88% 29.89 in 10.0 mi East 5.8 mph - 0.04 in Rain Light Rain
8:15 PM 66.4 °F 62.8 °F 88% 29.89 in 10.0 mi East 5.8 mph - N/A   Light Drizzle
8:35 PM 66.4 °F 63.0 °F 89% 29.89 in 10.0 mi East 5.8 mph - N/A Rain Rain
8:55 PM 66.6 °F 63.7 °F 90% 29.89 in 10.0 mi East 4.6 mph - 0.01 in   Drizzle
9:15 PM 67.1 °F 64.0 °F 90% 29.89 in 10.0 mi East 5.8 mph - N/A   Drizzle
9:35 PM 67.1 °F 63.5 °F 88% 29.89 in 10.0 mi East 9.2 mph 19.6 mph 0.01 in   Drizzle
9:55 PM 66.6 °F 63.0 °F 88% 29.90 in 10.0 mi East 11.5 mph 17.3 mph 0.01 in   Drizzle
10:15 PM 66.2 °F 62.8 °F 89% 29.89 in 7.0 mi East 9.2 mph - 0.01 in Rain Rain
10:35 PM 66.2 °F 63.0 °F 89% 29.89 in 7.0 mi East 8.1 mph - 0.02 in   Drizzle
10:55 PM 66.2 °F 63.3 °F 90% 29.89 in 7.0 mi East 5.8 mph - 0.03 in Rain Light Rain
11:15 PM 66.4 °F 63.5 °F 90% 29.89 in 7.0 mi ENE 5.8 mph - 0.02 in Rain Light Rain
11:35 PM 66.4 °F 63.5 °F 90% 29.88 in 7.0 mi ENE 3.5 mph - 0.05 in Rain Rain
11:55 PM 66.4 °F 63.7 °F 91% 29.87 in 5.0 mi NE 3.5 mph - 0.10 in Rain Rain